www.pogodaiklimat.ru

Погода и климат >> Архив погоды >> Россия >> Ленинградская область >> Кингисепп


АРХИВ ПОГОДЫ в Кингисеппе

Время (UTC), дата Ветер
(напр.,м/с)
 
Видим.   Явления Облачность Т
(С)
Тd
(С)
f
(%)
Тe
(С)
Тes
(С)
Комфортность P
(гПа)
Po
(гПа)
Тmin
(С)
Tmax
(С)
R
(мм)
R24
(мм)
S
(см)
06 17.02 СЗ 4
{10}
10 км ясно +1.1 -3.4 72 -4 -4 1004.7 1002.2 -1.1 21
09 17.02 З 6-12
{13}
20 км ясно +2.4 -3.9 63 -3 -2 1007.1 1004.6
12 17.02 З 6-11
{13}
20 км ясно +3.0 -4.2 59 -2 -2 1010.3 1007.8
15 17.02 СЗ 6-12
{14}
10 км 1/0
[Ci fib]
+2.4 -5.4 56 -3 -3 1013.2 1010.7
18 17.02 СЗ 4
{12}
10 км ясно +1.3 -9.8 43 -3 -3 1016.1 1013.6 +3.0 +3.0
21 17.02 СЗ 3 10 км 1/0
[Ci fib]
-0.8 -8.3 57 -5 -5 1018.9 1016.3
00 18.02 СЗ 2 10 км 3/0
[Ci fib]
-3.3 -7.7 72 -7 -7 1021.2 1018.6
03 18.02 СЗ 1 10 км 4/0
[Ac trans Ci fib]
-4.5 -8.8 72 -7 -7 1022.2 1019.6 -4.8
06 18.02 штиль 0 10 км 1/0
[Ac trans]
-7.2 -8.1 93 -8 -8 1023.8 1021.2 -7.2 20
09 18.02 ЮВ 1 20 км 8/0
[Ac As]
-1.9 -7.2 67 -4 -3 1024.1 1021.5
12 18.02 ЮВ 2 20 км 9/0
[Ac As]
+0.3 -7.6 55 -3 -2 1022.2 1019.6
15 18.02 ЮВ 3 20 км 9/0
[Ac As]
+0.3 -8.5 52 -4 -4 1019.1 1016.5
18 18.02 Ю 3 10 км 9/0
[Ac trans]
+0.4 -7.4 56 -4 -4 1015.7 1013.2 +0.6
21 18.02 Ю 3 10 км 10/10 1440 м
[Sc]
+1.0 -3.9 70 -3 -3 1012.3 1009.8
00 19.02 Ю 3 10 км 10/10 420 м
[St]
+1.1 -1.5 83 -3 -3 1010.6 1008.1
03 19.02 Ю 4
{10}
10 км 10/10 330 м
[St]
+2.1 +0.2 87 -3 -3 1008.2 1005.7 -0.7
06 19.02 ЮЗ 4 10 км {ливн. осадки} 10/10 240 м
[St]
+2.3 +1.0 91 -3 -3 1006.6 1004.1 +0.3 0.0 20
09 19.02 ЮЗ 3 4000 м слаб. морось 10/10 180 м
[St]
+2.8 +1.5 91 -1 -1 1005.6 1003.1
12 19.02 Ю 3 10 км в посл. час морось 10/10 240 м
[St]
+3.0 +1.2 88 -1 -1 1002.8 1000.3
15 19.02 Ю 3 10 км 10/10 330 м
[St]
+2.8 +1.2 89 -1 -1 999.6 997.1 0.0
18 19.02 Ю 2 10 км 10/10 450 м
[St]
+2.8 +0.7 86 -0 -0 995.8 993.4 +3.2 0.0
21 19.02 ЮЗ 4 10 км в посл. час ливневой дождь 10/10 240 м
[St]
+2.1 +1.0 92 -3 -3 994.4 992.0
00 20.02 ЮЗ 4 10 км {ливн. осадки} 10/10 180 м
[St]
+2.3 +1.5 94 -3 -3 993.4 991.0
03 20.02 Ю 3 10 км слаб. ливневой дождь 10/10 120 м
[Cb cap]
+2.5 +2.0 96 -2 -2 991.8 989.4 +2.1 3
06 20.02 ЮЗ 5 10 км слаб. ливневой дождь 10/10 360 м
[Cb cap]
+2.3 +1.8 96 -3 -3 991.4 989.0 +2.1 4 16
09 20.02 ЮЗ 3 10 км {ливн. осадки} 10/10 500 м
[St]
+2.7 +1.7 93 -2 -2 991.1 988.7
12 20.02 З 3 4000 м слаб. ливневой дождь со снегом 10/10 330 м
[Cb cap]
+1.8 +1.0 94 -3 -3 991.5 989.1
15 20.02 З 5-10
{12}
500 м ливневой снег {метель} 10/10 540 м
[Cb cap]
-2.0 -2.6 96 -9 -9 995.2 992.7 6
18 20.02 СЗ 5
{10}
2000 м слаб. ливневой снег {метель} 10/10 480 м
[Cb cap]
-4.1 -5.6 89 -11 -11 999.1 996.5 +2.7 5
21 20.02 СЗ 5-10
{10}
4000 м слаб. ливневой снег {метель} [диам. отлож. мокр. снега 2 мм] 10/10 400 м
[Cb cap]
-4.8 -6.8 86 -12 -12 1002.3 999.7
00 21.02 С 6-11
{13}
10 км позёмок {ливн. осадки} [диам. отлож. мокр. снега 1 мм] 8/8 1440 м
[Sc]
-4.6 -9.4 69 -12 -12 1005.9 1003.3
03 21.02 СЗ 5-11
{14}
10 км метель [диам. отлож. мокр. снега 1 мм] 10/5 1000 м
[Sc Ac trans Cs]
-5.1 -11.5 61 -12 -12 1010.4 1007.8 -5.1 0.7
06 21.02 СЗ 5
{12}
20 км {метель} [диам. отлож. мокр. снега 0 мм] 1/1 1000 м
[Sc]
-6.4 -11.4 68 -14 -13 1014.2 1011.6 -6.4 0.4 19
09 21.02 С 4
{11}
20 км ясно -5.1 -11.0 63 -11 -9 1017.2 1014.6
12 21.02 СЗ 4
{11}
20 км 1/1 600 м
[Sc]
-4.1 -11.4 57 -10 -9 1019.8 1017.2
15 21.02 СЗ 3 20 км ясно -5.3 -13.3 53 -10 -10 1022.4 1019.8
18 21.02 СЗ 3 10 км ясно -6.8 -13.5 59 -12 -12 1024.7 1022.1 -4.0
21 21.02 СЗ 1 10 км ясно -8.1 -13.3 66 -10 -10 1027.6 1024.9
00 22.02 СЗ 3 10 км ясно -9.6 -12.2 81 -15 -15 1029.9 1027.2
03 22.02 СЗ 2 10 км ясно -10.0 -12.2 84 -15 -15 1032.0 1029.3 -10.5
06 22.02 СЗ 3 20 км ясно -10.3 -12.3 85 -16 -16 1035.0 1032.3 -10.5 17
09 22.02 СЗ 3 20 км ясно -5.8 -10.1 72 -11 -9 1038.1 1035.4
12 22.02 СЗ 3 20 км ясно -2.9 -9.6 60 -8 -6 1039.7 1037.0
15 22.02 СЗ 3 20 км 1/0
[Ci fib]
-3.8 -10.9 58 -9 -9 1040.1 1037.4
18 22.02 штиль 0 10 км ясно -9.5 -11.6 85 -10 -10 1040.4 1037.7 -2.9
21 22.02 Ю 1 10 км 10/0
[As trans]
-10.3 -11.6 90 -13 -13 1039.3 1036.6
00 23.02 ЮЗ 2 10 км 3/0
[As trans]
-8.3 -12.0 75 -13 -13 1036.9 1034.2
03 23.02 ЮЗ 3 10 км 10/0
[As op]
-5.2 -10.2 68 -10 -10 1033.9 1031.3 -11.9
06 23.02 ЮЗ 3 4000 м слаб. снег 10/10 360 м
[Frnb Ns]
-4.4 -6.0 89 -10 -10 1029.8 1027.2 -11.9 1 17
09 23.02 З 3 4000 м слаб. морось [диам. гололёда 1 мм] 10/10 210 м
[St]
-1.9 -2.8 94 -7 -7 1027.3 1024.7
12 23.02 З 4 4000 м слаб. морось {дождь} [диам. гололёда 0 мм] 10/10 180 м
[St]
+0.8 0.0 94 -5 -5 1026.0 1023.4
15 23.02 З 3
{11}
4000 м слаб. морось 10/10 120 м
[St]
+1.0 +0.5 96 -4 -4 1025.5 1022.9 3
18 23.02 З 2 10 км {морось} 10/10 150 м
[St]
+1.1 +0.8 98 -3 -3 1026.2 1023.6 +1.3 2
21 23.02 ЮЗ 2 10 км 10/10 300 м
[St]
+1.5 +1.0 96 -2 -2 1025.5 1022.9
00 24.02 Ю 1 4000 м дымка 10/10 240 м
[St]
-0.1 -0.4 98 -2 -2 1025.1 1022.5
03 24.02 ЮЗ 1 4000 м дымка 10/10 120 м
[St]
+0.2 -0.1 98 -2 -2 1024.6 1022.0 -0.1 0.0

 

Местоположение метеостанции Кингисепп (Ленинградская область, Россия): широта 59.37 долгота 28.60 высота над уровнем моря 20 м.

В архиве по умолчанию представлена погода в Кингисеппе за последнюю неделю. Архивные данные за месяц целиком и за предыдущие месяцы, начиная с января 2011 года, Вы можете получить, выбрав интересующий диапазон дат из раскрывающегося списка и нажав кнопку "Ввод!".


*Определитесь, кто Вы:
робот инопланетянин человек

Внимание! Время в таблицах - всемирное. Для получения местного времени необходимо прибавить поправку, которая равна 3 ч.

Смотрите также архив погоды в соседних городах и на ближайших метеорологических станциях:

Погода в Нарве (Эстония) (27 км)
Погода в Сланцах (Ленинградская область, Россия) (41 км)
Погода в Волосово (Ленинградская область, Россия) (51 км)
Погода в Сосновом Бору (Ленинградская область, Россия) (59 км)
Погода в Шепелево (Ленинградская область, Россия) (66 км)
Погода в Йохви (Эстония) (69 км)
Погода в Гдове (Псковская область, Россия) (84 км)
Погода в Белогорке (Ленинградская область, Россия) (87 км)
Погода в Ломоносове (город Санкт-Петербург, Россия) (90 км)
Погода в Кронштадте (город Санкт-Петербург, Россия) (94 км)

Пояснения к столбцам:

Ветер - указаны скорость ветра в м/с - средняя за 10 мин, порывы в срок и между сроками (в фигурных скобках) и направление, откуда дует ветер: С - северный, СВ - северо-восточный, В - восточный, ЮВ - юго-восточный, Ю - южный, ЮЗ - юго-западный, З - западный, СЗ - северо-западный.
Видимость - горизонтальная дальность видимости в метрах или километрах. При видимости от 1 до 10 км при отсутствии осадков обычно наблюдается дымка, при ухудшении видимости до 1 км и менее - туман. В сухую погоду видимость может ухудшаться дымом, пылью или мглою.
Явления - указаны атмосферные явления, наблюдавшиеся в срок или в последний час перед сроком; фигурными скобками обозначены явления, наблюдавшиеся между сроками (за 1-3 часа до срока); квадратными скобками обозначены град или гололедные отложения с указанием их диаметра в мм.
Облачность - указаны через наклонную черту общая и нижняя облачность в баллах и высота нижней границы облаков в метрах; квадратными скобками обозначены формы облаков: Ci - перистые, Cs - перисто-слоистые, Cc - перисто-кучевые, Ac - высококучевые, As - высокослоистые, Sc - слоисто-кучевые, Ns - слоисто-дождевые, Cu - кучевые, Cb - кучево-дождевые. Подробнее классификацию облаков см. в Атласе облаков (PDF).
T - Температура воздуха - температура, измеренная на высоте 2 м над землей.
Td - Температура точки росы - температура, при понижении до которой содержащийся в воздухе водяной пар достигнет насыщения.
f - Относительная влажность воздуха - влажноcть воздуха, измеренная на высоте 2 м над землей.
Te - Эффективная температура - температура, которую ощущает одетый по сезону человек в тени. Характеристика душности погоды. При расчете учитывается влияние влажности воздуха и скорости ветра на теплоощущения человека.
Tes - Эффективная температура на солнце - температура, которую ощущает человек, с поправкой на солнечный нагрев. Характеристика знойности погоды. Зависит от высоты солнца над горизонтом, облачности и скорости ветра. Ночью, в пасмурную погоду, а также при ветре 12 м/с и более поправка равна нулю.
P - Атмосферное давление - приведенное к уровню моря атмосферное давление.
Po - Атмосферное давление - измеренное на уровне метеостанции атмосферное давление.
Tmin - Минимальная температура - минимум температуры воздуха на высоте 2 м над землей.
Tmax - Максимальная температура - максимум температуры воздуха на высоте 2 м над землей.
R - Количество осадков - Количество выпавших осадков за период времени, мм. При наведении курсора мыши на число - период времени, за который выпало указанное количество осадков.
R24 - Количество осадков - Количество выпавших осадков за 24 часа, мм.
S - Снежный покров - Высота снежного покрова, см. При наведении курсора мыши на число - состояние снежного покрова и степень покрытия местности в баллах.